Time,TemperatureF,DewpointF,PressureIn,WindDirection,WindDirectionDegrees,WindSpeedMPH,WindSpeedGustMPH,Humidity,HourlyPrecipIn,Conditions,Clouds,dailyrainin,SoftwareType,DateUTC
2013-02-28 00:01:00,27.0,22.0,30.15,East,86,11.0,14.0,82,0.00,,,0.00,,2013-02-28 07:01:00,
2013-02-28 00:11:00,27.0,22.0,30.15,East,86,11.0,14.0,82,0.00,,,0.00,,2013-02-28 07:11:00,
2013-02-28 00:21:00,26.0,22.0,30.15,East,82,12.0,15.0,83,0.00,,,0.00,,2013-02-28 07:21:00,
2013-02-28 00:31:00,26.0,22.0,30.14,East,83,13.0,16.0,83,0.00,,,0.00,,2013-02-28 07:31:00,
2013-02-28 00:41:00,26.0,22.0,30.14,East,83,13.0,16.0,83,0.00,,,0.00,,2013-02-28 07:41:00,
2013-02-28 00:52:00,26.0,22.0,30.13,ENE,78,10.0,16.0,84,0.00,,,0.00,,2013-02-28 07:52:00,
2013-02-28 01:01:00,26.0,22.0,30.13,East,85,10.0,12.0,84,0.00,,,0.00,,2013-02-28 08:01:00,
2013-02-28 01:11:00,26.0,22.0,30.13,East,85,10.0,12.0,84,0.00,,,0.00,,2013-02-28 08:11:00,
2013-02-28 01:22:00,26.0,22.0,30.13,East,90,12.0,15.0,85,0.00,,,0.00,,2013-02-28 08:22:00,
2013-02-28 01:32:00,26.0,22.0,30.13,East,90,12.0,15.0,85,0.00,,,0.00,,2013-02-28 08:32:00,
2013-02-28 01:42:00,26.0,22.0,30.13,East,90,12.0,15.0,85,0.00,,,0.00,,2013-02-28 08:42:00,
2013-02-28 01:53:00,26.0,22.0,30.13,East,90,12.0,15.0,85,0.00,,,0.00,,2013-02-28 08:53:00,
2013-02-28 02:03:00,26.0,22.0,30.13,East,82,13.0,16.0,85,0.00,,,0.00,,2013-02-28 09:03:00,
2013-02-28 02:11:00,26.0,22.0,30.13,East,82,13.0,16.0,85,0.00,,,0.00,,2013-02-28 09:11:00,
2013-02-28 02:22:00,26.0,22.0,30.13,ENE,76,10.0,16.0,85,0.00,,,0.00,,2013-02-28 09:22:00,
2013-02-28 02:32:00,26.0,22.0,30.13,ENE,69,12.0,15.0,85,0.00,,,0.00,,2013-02-28 09:32:00,
2013-02-28 02:42:00,26.0,22.0,30.13,ENE,69,12.0,15.0,85,0.00,,,0.00,,2013-02-28 09:42:00,
2013-02-28 02:52:00,25.0,21.0,30.12,East,86,12.0,17.0,85,0.00,,,0.00,,2013-02-28 09:52:00,
2013-02-28 03:01:00,25.0,21.0,30.12,ENE,75,12.0,16.0,85,0.00,,,0.00,,2013-02-28 10:01:00,
2013-02-28 03:11:00,25.0,21.0,30.12,ENE,75,12.0,16.0,85,0.00,,,0.00,,2013-02-28 10:11:00,
2013-02-28 03:22:00,25.0,21.0,30.11,East,86,11.0,15.0,85,0.00,,,0.00,,2013-02-28 10:22:00,
2013-02-28 03:32:00,25.0,21.0,30.12,East,84,10.0,12.0,85,0.00,,,0.00,,2013-02-28 10:32:00,
2013-02-28 03:42:00,25.0,21.0,30.12,East,84,10.0,12.0,85,0.00,,,0.00,,2013-02-28 10:42:00,
2013-02-28 03:52:00,25.0,21.0,30.12,ENE,77,9.0,12.0,85,0.00,,,0.00,,2013-02-28 10:52:00,
2013-02-28 04:01:00,24.0,20.0,30.11,East,82,10.0,13.0,86,0.00,,,0.00,,2013-02-28 11:01:00,
2013-02-28 04:11:00,24.0,20.0,30.11,East,82,10.0,13.0,86,0.00,,,0.00,,2013-02-28 11:11:00,
2013-02-28 04:22:00,24.0,20.0,30.11,East,88,10.0,13.0,86,0.00,,,0.00,,2013-02-28 11:22:00,
2013-02-28 04:32:00,24.0,21.0,30.11,East,83,9.0,12.0,87,0.00,,,0.00,,2013-02-28 11:32:00,
2013-02-28 04:42:00,24.0,21.0,30.11,East,83,9.0,12.0,87,0.00,,,0.00,,2013-02-28 11:42:00,
2013-02-28 04:52:00,23.0,20.0,30.11,East,81,7.0,10.0,87,0.00,,,0.00,,2013-02-28 11:52:00,
2013-02-28 05:01:00,23.0,20.0,30.11,East,80,9.0,12.0,87,0.00,,,0.00,,2013-02-28 12:01:00,
2013-02-28 05:11:00,23.0,20.0,30.11,East,80,9.0,12.0,87,0.00,,,0.00,,2013-02-28 12:11:00,
2013-02-28 05:22:00,23.0,20.0,30.11,East,80,8.0,12.0,87,0.00,,,0.00,,2013-02-28 12:22:00,
2013-02-28 05:32:00,23.0,20.0,30.11,ENE,78,8.0,10.0,87,0.00,,,0.00,,2013-02-28 12:32:00,
2013-02-28 05:42:00,23.0,20.0,30.11,ENE,78,8.0,10.0,87,0.00,,,0.00,,2013-02-28 12:42:00,
2013-02-28 05:52:00,23.0,20.0,30.11,East,82,7.0,10.0,88,0.00,,,0.00,,2013-02-28 12:52:00,
2013-02-28 06:01:00,23.0,20.0,30.11,East,81,7.0,10.0,88,0.00,,,0.00,,2013-02-28 13:01:00,
2013-02-28 06:11:00,22.0,19.0,30.11,East,90,5.0,10.0,87,0.00,,,0.00,,2013-02-28 13:11:00,
2013-02-28 06:22:00,22.0,19.0,30.11,East,90,5.0,10.0,87,0.00,,,0.00,,2013-02-28 13:22:00,
2013-02-28 06:32:00,22.0,19.0,30.11,ENE,78,6.0,7.0,87,0.00,,,0.00,,2013-02-28 13:32:00,
2013-02-28 06:42:00,22.0,19.0,30.11,ENE,78,6.0,7.0,87,0.00,,,0.00,,2013-02-28 13:42:00,
2013-02-28 06:52:00,22.0,19.0,30.11,East,81,3.0,7.0,88,0.00,,,0.00,,2013-02-28 13:52:00,
2013-02-28 07:01:00,22.0,19.0,30.11,East,82,5.0,6.0,88,0.00,,,0.00,,2013-02-28 14:01:00,
2013-02-28 07:11:00,22.0,19.0,30.11,East,83,0.0,6.0,88,0.00,,,0.00,,2013-02-28 14:11:00,
2013-02-28 07:22:00,22.0,19.0,30.11,East,83,0.0,6.0,88,0.00,,,0.00,,2013-02-28 14:22:00,
2013-02-28 07:32:00,22.0,19.0,30.11,East,83,3.0,3.0,88,0.00,,,0.00,,2013-02-28 14:32:00,
2013-02-28 07:42:00,22.0,19.0,30.11,East,83,3.0,3.0,88,0.00,,,0.00,,2013-02-28 14:42:00,
2013-02-28 07:52:00,22.0,19.0,30.11,East,83,3.0,3.0,88,0.00,,,0.00,,2013-02-28 14:52:00,
2013-02-28 08:02:00,23.0,20.0,30.10,East,83,0.0,3.0,88,0.00,,,0.00,,2013-02-28 15:02:00,
2013-02-28 08:11:00,23.0,20.0,30.10,East,83,0.0,3.0,88,0.00,,,0.00,,2013-02-28 15:11:00,
2013-02-28 08:21:00,25.0,22.0,30.10,East,83,1.0,3.0,88,0.00,,,0.00,,2013-02-28 15:21:00,
2013-02-28 08:32:00,25.0,22.0,30.10,East,83,0.0,3.0,88,0.00,,,0.00,,2013-02-28 15:32:00,
2013-02-28 08:41:00,25.0,22.0,30.10,East,83,0.0,3.0,88,0.00,,,0.00,,2013-02-28 15:41:00,
2013-02-28 08:52:00,26.0,22.0,30.10,SSW,202,5.0,7.0,84,0.00,,,0.00,,2013-02-28 15:52:00,
2013-02-28 09:01:00,26.0,21.0,30.10,WSW,253,4.0,7.0,82,0.00,,,0.00,,2013-02-28 16:01:00,
2013-02-28 09:11:00,26.0,21.0,30.10,WSW,253,4.0,7.0,82,0.00,,,0.00,,2013-02-28 16:11:00,
2013-02-28 09:22:00,27.0,21.0,30.11,SW,234,5.0,9.0,79,0.00,,,0.00,,2013-02-28 16:22:00,
2013-02-28 09:32:00,27.0,21.0,30.11,West,263,5.0,9.0,78,0.00,,,0.00,,2013-02-28 16:32:00,
2013-02-28 09:42:00,27.0,21.0,30.11,West,263,5.0,9.0,78,0.00,,,0.00,,2013-02-28 16:42:00,
2013-02-28 09:52:00,28.0,22.0,30.11,West,267,3.0,7.0,77,0.00,,,0.00,,2013-02-28 16:52:00,
2013-02-28 10:01:00,28.0,21.0,30.11,West,271,5.0,8.0,75,0.00,,,0.00,,2013-02-28 17:01:00,
2013-02-28 10:11:00,28.0,21.0,30.11,West,271,5.0,8.0,75,0.00,,,0.00,,2013-02-28 17:11:00,
2013-02-28 10:22:00,28.0,21.0,30.11,West,271,5.0,8.0,75,0.00,,,0.00,,2013-02-28 17:22:00,
2013-02-28 10:32:00,29.0,22.0,30.11,WSW,247,5.0,7.0,74,0.00,,,0.00,,2013-02-28 17:32:00,
2013-02-28 10:42:00,29.0,22.0,30.11,WSW,247,5.0,7.0,74,0.00,,,0.00,,2013-02-28 17:42:00,
2013-02-28 10:52:00,32.0,23.0,30.12,West,264,6.0,12.0,70,0.00,,,0.00,,2013-02-28 17:52:00,
2013-02-28 11:02:00,32.0,23.0,30.12,West,278,7.0,10.0,68,0.00,,,0.00,,2013-02-28 18:02:00,
2013-02-28 11:11:00,32.0,23.0,30.12,West,278,7.0,10.0,68,0.00,,,0.00,,2013-02-28 18:11:00,
2013-02-28 11:22:00,32.0,23.0,30.12,West,278,7.0,10.0,68,0.00,,,0.00,,2013-02-28 18:22:00,
2013-02-28 11:32:00,32.0,22.0,30.12,WSW,250,7.0,12.0,66,0.00,,,0.00,,2013-02-28 18:32:00,
2013-02-28 11:42:00,32.0,22.0,30.12,WSW,250,7.0,12.0,66,0.00,,,0.00,,2013-02-28 18:42:00,
2013-02-28 11:52:00,32.0,22.0,30.12,West,259,7.0,12.0,67,0.00,,,0.00,,2013-02-28 18:52:00,
2013-02-28 12:01:00,32.0,22.0,30.12,West,274,7.0,12.0,67,0.00,,,0.00,,2013-02-28 19:01:00,
2013-02-28 12:11:00,32.0,22.0,30.12,West,274,7.0,12.0,67,0.00,,,0.00,,2013-02-28 19:11:00,
2013-02-28 12:21:00,33.0,23.0,30.11,WSW,253,7.0,12.0,66,0.00,,,0.00,,2013-02-28 19:21:00,
2013-02-28 12:32:00,34.0,24.0,30.11,WSW,244,5.0,10.0,67,0.00,,,0.00,,2013-02-28 19:32:00,
2013-02-28 12:41:00,34.0,24.0,30.11,WSW,244,5.0,10.0,67,0.00,,,0.00,,2013-02-28 19:41:00,
2013-02-28 12:52:00,36.0,25.0,30.10,West,271,5.0,10.0,64,0.00,,,0.00,,2013-02-28 19:52:00,
2013-02-28 13:01:00,36.0,24.0,30.10,West,267,6.0,10.0,62,0.00,,,0.00,,2013-02-28 20:01:00,
2013-02-28 13:12:00,36.0,24.0,30.10,West,267,6.0,10.0,62,0.00,,,0.00,,2013-02-28 20:12:00,
2013-02-28 13:22:00,37.0,25.0,30.10,West,263,6.0,12.0,62,0.00,,,0.00,,2013-02-28 20:22:00,
2013-02-28 13:32:00,37.0,25.0,30.10,West,268,7.0,12.0,62,0.00,,,0.00,,2013-02-28 20:32:00,
2013-02-28 13:42:00,37.0,25.0,30.10,West,268,7.0,12.0,62,0.00,,,0.00,,2013-02-28 20:42:00,
2013-02-28 13:52:00,37.0,25.0,30.10,West,268,7.0,12.0,62,0.00,,,0.00,,2013-02-28 20:52:00,
2013-02-28 14:01:00,37.0,25.0,30.10,West,275,5.0,10.0,62,0.00,,,0.00,,2013-02-28 21:01:00,
2013-02-28 14:11:00,37.0,25.0,30.10,West,275,5.0,10.0,62,0.00,,,0.00,,2013-02-28 21:11:00,
2013-02-28 14:22:00,37.0,25.0,30.09,West,260,4.0,7.0,62,0.00,,,0.00,,2013-02-28 21:22:00,
2013-02-28 14:32:00,37.0,25.0,30.10,West,261,3.0,7.0,62,0.00,,,0.00,,2013-02-28 21:32:00,
2013-02-28 14:42:00,37.0,25.0,30.10,West,261,3.0,7.0,62,0.00,,,0.00,,2013-02-28 21:42:00,
2013-02-28 14:52:00,38.0,26.0,30.10,West,264,5.0,10.0,61,0.00,,,0.00,,2013-02-28 21:52:00,
2013-02-28 15:01:00,38.0,26.0,30.10,WSW,257,3.0,10.0,62,0.00,,,0.00,,2013-02-28 22:01:00,
2013-02-28 15:11:00,38.0,26.0,30.10,WSW,257,3.0,10.0,62,0.00,,,0.00,,2013-02-28 22:11:00,
2013-02-28 15:21:00,39.0,26.0,30.10,West,272,3.0,7.0,59,0.00,,,0.00,,2013-02-28 22:21:00,
2013-02-28 15:32:00,40.0,26.0,30.10,WNW,294,6.0,10.0,56,0.00,,,0.00,,2013-02-28 22:32:00,
2013-02-28 15:41:00,40.0,26.0,30.10,WNW,294,6.0,10.0,56,0.00,,,0.00,,2013-02-28 22:41:00,
2013-02-28 15:52:00,39.0,25.0,30.11,NNW,341,7.0,10.0,58,0.00,,,0.00,,2013-02-28 22:52:00,
2013-02-28 16:01:00,39.0,26.0,30.11,NW,322,7.0,12.0,60,0.00,,,0.00,,2013-02-28 23:01:00,
2013-02-28 16:11:00,37.0,25.0,30.11,WNW,300,9.0,13.0,61,0.00,,,0.00,,2013-02-28 23:11:00,
2013-02-28 16:22:00,37.0,25.0,30.11,WNW,300,9.0,13.0,61,0.00,,,0.00,,2013-02-28 23:22:00,
2013-02-28 16:31:00,37.0,26.0,30.11,NNW,333,10.0,15.0,63,0.00,,,0.00,,2013-02-28 23:31:00,
2013-02-28 16:41:00,37.0,26.0,30.11,NNW,333,10.0,15.0,63,0.00,,,0.00,,2013-02-28 23:41:00,
2013-02-28 16:53:00,37.0,27.0,30.11,NW,319,6.0,12.0,67,0.00,,,0.00,,2013-02-28 23:53:00,
2013-02-28 17:01:00,36.0,26.0,30.14,NW,304,5.0,9.0,66,0.00,,,0.00,,2013-03-01 00:01:00,
2013-02-28 17:11:00,36.0,26.0,30.14,NW,304,5.0,9.0,66,0.00,,,0.00,,2013-03-01 00:11:00,
2013-02-28 17:22:00,36.0,26.0,30.14,WNW,296,4.0,7.0,68,0.00,,,0.00,,2013-03-01 00:22:00,
2013-02-28 17:32:00,36.0,26.0,30.15,WNW,284,5.0,9.0,68,0.00,,,0.00,,2013-03-01 00:32:00,
2013-02-28 17:41:00,36.0,26.0,30.15,WNW,284,5.0,9.0,68,0.00,,,0.00,,2013-03-01 00:41:00,
2013-02-28 17:52:00,36.0,26.0,30.15,WNW,286,7.0,10.0,66,0.00,,,0.00,,2013-03-01 00:52:00,
2013-02-28 18:01:00,35.0,25.0,30.16,WNW,296,6.0,10.0,66,0.00,,,0.00,,2013-03-01 01:01:00,
2013-02-28 18:11:00,35.0,25.0,30.16,WNW,296,6.0,10.0,66,0.00,,,0.00,,2013-03-01 01:11:00,
2013-02-28 18:21:00,34.0,24.0,30.16,WNW,286,8.0,12.0,67,0.00,,,0.00,,2013-03-01 01:21:00,
2013-02-28 18:32:00,33.0,24.0,30.16,WNW,302,8.0,12.0,69,0.00,,,0.00,,2013-03-01 01:32:00,
2013-02-28 18:42:00,33.0,24.0,30.16,WNW,302,8.0,12.0,69,0.00,,,0.00,,2013-03-01 01:42:00,
2013-02-28 18:52:00,32.0,24.0,30.16,NW,323,7.0,12.0,73,0.00,,,0.00,,2013-03-01 01:52:00,
2013-02-28 19:01:00,31.0,23.0,30.16,NW,308,7.0,10.0,73,0.00,,,0.00,,2013-03-01 02:01:00,
2013-02-28 19:11:00,31.0,23.0,30.17,NW,313,6.0,10.0,71,0.00,,,0.00,,2013-03-01 02:11:00,
2013-02-28 19:21:00,31.0,23.0,30.17,NW,313,6.0,10.0,71,0.00,,,0.00,,2013-03-01 02:21:00,
2013-02-28 19:31:00,31.0,23.0,30.18,NW,310,5.0,8.0,72,0.00,,,0.00,,2013-03-01 02:31:00,
2013-02-28 19:42:00,31.0,23.0,30.18,NW,310,5.0,8.0,72,0.00,,,0.00,,2013-03-01 02:42:00,
2013-02-28 19:52:00,30.0,22.0,30.18,NW,310,3.0,6.0,73,0.00,,,0.00,,2013-03-01 02:52:00,
2013-02-28 20:01:00,29.0,22.0,30.18,NW,311,1.0,5.0,74,0.00,,,0.00,,2013-03-01 03:01:00,
2013-02-28 20:11:00,29.0,22.0,30.18,NW,311,1.0,5.0,74,0.00,,,0.00,,2013-03-01 03:11:00,
2013-02-28 20:21:00,28.0,21.0,30.18,NW,310,0.0,1.0,76,0.00,,,0.00,,2013-03-01 03:21:00,
2013-02-28 20:32:00,28.0,21.0,30.19,NW,311,0.0,0.0,76,0.00,,,0.00,,2013-03-01 03:32:00,
2013-02-28 20:42:00,28.0,21.0,30.19,NW,311,0.0,0.0,76,0.00,,,0.00,,2013-03-01 03:42:00,
2013-02-28 20:52:00,28.0,21.0,30.19,NW,311,2.0,3.0,76,0.00,,,0.00,,2013-03-01 03:52:00,
2013-02-28 21:01:00,28.0,21.0,30.19,NW,310,3.0,5.0,76,0.00,,,0.00,,2013-03-01 04:01:00,
2013-02-28 21:11:00,28.0,21.0,30.19,NW,310,3.0,5.0,76,0.00,,,0.00,,2013-03-01 04:11:00,
2013-02-28 21:21:00,27.0,21.0,30.19,NW,311,0.0,3.0,77,0.00,,,0.00,,2013-03-01 04:21:00,
2013-02-28 21:32:00,27.0,21.0,30.19,NW,310,0.0,0.0,77,0.00,,,0.00,,2013-03-01 04:32:00,
2013-02-28 21:42:00,27.0,21.0,30.19,NW,310,0.0,0.0,77,0.00,,,0.00,,2013-03-01 04:42:00,
2013-02-28 21:52:00,26.0,20.0,30.21,NW,311,3.0,3.0,79,0.00,,,0.00,,2013-03-01 04:52:00,
2013-02-28 22:02:00,26.0,20.0,30.21,NW,311,2.0,3.0,79,0.00,,,0.00,,2013-03-01 05:02:00,
2013-02-28 22:11:00,26.0,20.0,30.21,NW,311,2.0,3.0,79,0.00,,,0.00,,2013-03-01 05:11:00,
2013-02-28 22:22:00,26.0,20.0,30.21,NW,310,0.0,0.0,79,0.00,,,0.00,,2013-03-01 05:22:00,
2013-02-28 22:32:00,25.0,19.0,30.21,NW,311,1.0,3.0,79,0.00,,,0.00,,2013-03-01 05:32:00,
2013-02-28 22:42:00,25.0,19.0,30.21,NW,311,1.0,3.0,79,0.00,,,0.00,,2013-03-01 05:42:00,
2013-02-28 22:53:00,25.0,20.0,30.20,NW,310,1.0,3.0,81,0.00,,,0.00,,2013-03-01 05:53:00,
2013-02-28 23:02:00,24.0,19.0,30.20,NW,311,1.0,3.0,81,0.00,,,0.00,,2013-03-01 06:02:00,
2013-02-28 23:11:00,24.0,19.0,30.20,NW,311,1.0,3.0,81,0.00,,,0.00,,2013-03-01 06:11:00,
2013-02-28 23:22:00,24.0,19.0,30.20,NW,311,1.0,3.0,82,0.00,,,0.00,,2013-03-01 06:22:00,
2013-02-28 23:32:00,24.0,19.0,30.20,NW,311,0.0,2.0,82,0.00,,,0.00,,2013-03-01 06:32:00,
2013-02-28 23:42:00,24.0,19.0,30.20,NW,311,0.0,2.0,82,0.00,,,0.00,,2013-03-01 06:42:00,
2013-02-28 23:52:00,24.0,19.0,30.19,NW,311,2.0,3.0,82,0.00,,,0.00,,2013-03-01 06:52:00,